Location: Curupao
(10.4996°N, 66.6442°W)
Time: 12:09:52
(UTC+00:00)

SL-8 R/B - Pass Details

Date: 23 May 2024
Orbit: 651 x 662 km, 48.4° (Epoch: 24 June)

Event Time Altitude Azimuth Distance (km) Brightness Sun altitude
Rises 09:23:15 0° 309° (NW) 2,972 6.8 -10.0°
Reaches altitude 10° 09:25:40 10° 303° (WNW) 2,063 5.9 -9.5°
Maximum altitude 09:30:11 43° 232° (SW) 922 4.0 -8.5°
Drops below altitude 10° 09:34:42 10° 160° (SSE) 2,067 6.2 -7.4°
Sets 09:37:09 0° 154° (SSE) 2,980 7.1 -6.9°
